Погода в Мариуполе

Погода в Мариуполе : погода сейчас, прогноз погоды и архив. Всё, что Вы хотите узнать о погоде в Мариуполе!

Поиск расширенной информации на нашем сайте:

Полезная информация: Доводчик автомобильных дверей slamstop в москве купить дверной доводчик в москве.

Другие новости

Новости СМИ2

Главная страница сайта

Новости сайта

02.10.2013

Напоминаем, что на нашем новом сайте вы можете получить высокодетализированные прогнозы погоды по пунктам России, СНГ и мира (включающие важные для авиации метеовеличины, такие как направление и скорость ветра, видимость, явления погоды, количество и форма облачности, нижняя и верхняя граница облачности), а также ознакомиться с разнообразными материалами по авиационной метеорологии и подборкой полезных ссылок на эту тему.

Сайт Метеоцентр.Азия посвящён разработке технологий оптимизации авиаметеорологического обслуживания, включая проектирование и перспективное создание нескольких автоматизированных авиаметеорологических систем:
- система выпуска высокодетальных прогностических карт явлений погоды для нижнего воздушного пространства по России и ближнему зарубежью;
- система верификации прогнозов TAF (выпускаемых синоптиками официальных АМСГ РФ и ближнего зарубежья) и AUTOTAF (выпускаемых сайтом Метеоцентр.Азия) - выявление ошибок, онлайн-сопоставление с фактической погодой METAR, автоматическое внесение коррективов в прогнозы при резком отклонении фактической погоды от прогноза, подсчёт оправдываемости прогнозов по элементам и в целом;
- система обработки, анализа и отображения авиаметеорологической информации для применения провайдерами метеорологической информации.

Рекомендуем: Деревянные окна

Погода в Мариуполе - сегодня

Время (UTC), дата Ветер
(°,м/с) 
Видим.   Явления Облачность Т
(°С)
Тd
(°С)
f(%) Тe
(°С)
Pmin
(гПа)
dP
(гПа)
Po
(мм)
O2
(г/м3)
Тmin Tmax R s Состояние
почвы
06 30.08.15 360 (С) 10 км    3/0 средняя 
[Ac trans]
+23.1 +13.4 54 +29  1019  2.1  758  279  +20.6         
09 30.08.15 340 (С) 20000 м    ясно 
+26.5 +10.6 37 +28  1019.4  0.5  759  277           
12 30.08.15 360 (С) 20000 м    ясно 
+27.9 +9.2 31 +28  1018.6  -0.8  758  276           
15 30.08.15 340 (С) 20000 м    1/0 верхняя 
[Ci fib]
+26.9 +6.7 28 +27  1018.6  758  277           
18 30.08.15 310 (СЗ) 20000 м    ясно 
+20.8 +7.6 43 +21  1019.7  0.9  759  283    +28.4       
21 30.08.15 330 (СЗ) 20000 м    ясно 
+17.5 +8 54 +18  1020.1  0.3  759  286           
00 31.08.15 320 (СЗ) 20000 м    3/0 верхняя 
[Cs]
+15.8 +8.5 62 +16  1020.1  759  288           
03 31.08.15 330 (СЗ) 10 км    3/0 верхняя 
[Cs]
+13.5 +7.3 66 +13  1020.1  -0.1  759  290           
06 31.08.15 340 (С) 10 км    ясно 
+22.2 +11.8 52 +26  1020.3  0.5  759  281  +13.3         
09 31.08.15 340 (С) 20000 м    ясно 
+25 +9.6 38 +25  1019.1  -1.1  758  278           
12 31.08.15 250 (З) 20000 м    ясно 
+27.4 +14 44 +34  1018.1  -1  758  275           
15 31.08.15 230 (ЮЗ) 20000 м    ясно 
+26.6 +15.2 50 +35  1017.4  -0.7  757  275           
18 31.08.15 290 (З) 20000 м    ясно 
+22.6 +11.5 49 +26  1017.4  -0.1  757  280    +29       
21 31.08.15 270 (З) 20000 м    ясно 
+20.6 +10.7 53 +22  1017.1  -0.3  757  282           
00 01.09.15 180 (Ю) 20000 м    1/0 верхняя 
[Cc]
+19.4 +10.7 57 +22  1016.8  -0.4  756  283           
03 01.09.15 320 (СЗ) 10 км    8/0 средняя, верхняя 
[Ac cast|Ci sp]
+16.8 +10.4 66 +19  1016.3  -0.5  756  285           
06 01.09.15 140 (ЮВ) 4000 м  дымка  3/3 1000 м 
[Sc]
+22.5 +13.3 56 +28  1016.7  0.5  756  279  +16         
09 01.09.15 180 (Ю) 10 км    3/0 средняя 
[Ac trans]
+24.8 +17.4 63 +38  1016.6  756  276           
12 01.09.15 200 (Ю) 20000 м    ясно 
+26.7 +19.8 66 +45  1015.3  -1.2  756  273           
15 01.09.15 230 (ЮЗ) 20000 м    3/0 средняя 
[Ac trans]
+27 +18.5 60 +42  1014.7  -0.6  755  273           
18 01.09.15 200 (Ю) 20000 м    ясно 
+23.2 +20.4 84 +43  1014.2  -0.6  755  275    +28       
21 01.09.15 270 (З) 20000 м    ясно 
+23.2 +17.4 70 +36  1013.9  -0.3  754  276           
00 02.09.15 270 (З) 20000 м    3/0 средняя 
[Ac trans]
+22.5 +11.8 51 +26  1013.3  -0.7  754  278           
03 02.09.15 270 (З) 20000 м    8/0 средняя 
[Ac As]
+19.7 +10 54 +21  1013.2  -0.1  754  282           
06 02.09.15 250 (З) 20000 м    8/0 средняя 
[Ac cast]
+23.5 +12.9 51 +29  1013.9  0.8  754  277  +19.5         
Время (UTC), дата Ветер
(°,м/с) 
Видим.   Явления Облачность Т
(°С)
Тd
(°С)
f(%) Тe
(°С)
Pmin
(гПа)
dP
(гПа)
Po
(мм)
O2
(г/м3)
Тmin Tmax R s Состояние
почвы

Для получения пояснительной информации подведите курсор к названию столбца.

ПОГОДА в Мариуполе - архив

Всё, что Вы хотите узнать о погоде в Мариуполе - удобно и подробно!

Выберите нужную дату (начиная с 1 января 2013* года) и нажмите кнопку "Найти".
Будут отображены архивные сводки погоды по пункту Мариуполь, начиная с указанной даты.


Отображать данные в формате CSV (для использования в таблицах Excel)


Внимание! Наш архив погоды предназначен исключительно для личного некоммерческого использования в познавательных целях. Если Вам необходимы официальные справки о состоянии погоды (для производственных, юридических, коммерческих и т.п. целей), обращайтесь в органы Росгидромета.

*Примечание: данная дата относится к архиву по метеостанциям СССР (Россия, СНГ, Балтия).
Архив по метеостанциям Зарубежной Европы и Азии (кроме Китая) хранится 10 дней, по другим регионам земного шара (Китай, Африка, Америка, Австралия, Океания) - 1 день.

Мариуполь - район местоположения метеостанции


Название, широта, долгота, высота метеостанции:
Мариуполь (город) 47°ш. 37.5°д. 70 м над ур. моря [Украина]

Дополнительная информация

В oтличие oт бoльшинства пoгoдных сайтoв мы публикуем пoдрoбную метеoинфoрмацию в детальнoм прoфессиoнальнoм фoрмате.

Характеристики температуры и влажнoсти вoздуха измеряются на высoте 2 м в тени вдали oт зданий и деревьев.
Скoрoсть ветра измеряется на высoте 10 м (на урoвне рoста челoвека скoрoсть ветра ниже в 1.5-2 раза). Если метеoстанция нахoдится в гoрoде или в лесу, тo скoрoсть ветра занижена на 2-4 м/с пo сравнению с oткрытым местoм. Скoрoсть ветра над акватoриями крупных рек и oзёр, а также на вершинах хoлмoв на 2-5 м/с выше, чем в oбычных услoвиях.
Атмoсфернoе давление в разных тoчках местнoсти мoжет значительнo oтличаться oт давления на метеoстанции, в зависимoсти oт услoвий рельефа (при пoдъёме на 10 м давление пoнижается примернo на 1 мм рт.ст.).